Effective Sunday, March 17, 2024, the National Weather Service National Data Buoy Center will discontinue its Dial-A-Buoy Interactive Voice Response system. For more information, see Service Change Notice 24-06 (PDF).

Station 46022 (LLNR 500) - EEL RIVER - 17NM WSW of Eureka, CA Image indicating link to RSS feed of recent meteorological observations for station 46022


Conditions at 46022 as of
(7:10 am PST)
1510 GMT on 02/26/2024:
     

Click on the graph icon in the table below to see a time series plot of the last five days of that observation.

5-day plot - Wind Direction Wind Direction (WDIR): W ( 280 deg true )
5-day plot - Wind Speed Wind Speed (WSPD): 11.7 kts
5-day plot - Wind Gust Wind Gust (GST): 15.5 kts
5-day plot - Atmospheric Pressure Atmospheric Pressure (PRES):30.05 in
5-day plot - Air Temperature Air Temperature (ATMP): 52.7 °F
5-day plot - Water Temperature Water Temperature (WTMP): 55.0 °F
5-day plot - Dew Point Dew Point (DEWP): 42.8 °F
5-day plot - Wind Chill Wind Chill (CHILL): 48.4 °F
5-day plot - Wind Speed at 10 Meters Wind Speed at 10 meters (WSPD10M): 13.6 kts
5-day plot - Wind Speed at 20 Meters Wind Speed at 20 meters (WSPD20M): 13.6 kts
5-day plot -  Wind Speed, Wind Gust and Atmospheric Pressure Combined plot of Wind Speed, Gust, and Air Pressure
Supplemental Measurements
Highest 1-minute Wind Speed
Time (PST)5-day plot - 1-Minute Wind Speed WSPD 5-day plot - 1-Minute Wind Direction WDIR
7:05 am 13.6 kts-
Previous observations
TIME
(PST)
5-day plot - Wind Direction
WDIR
 
5-day plot - Wind Speed
WSPD
kts
5-day plot - Wind Gust
GST
kts
5-day plot - Wave Height
WVHT
ft
5-day plot - Dominant Wave Period
DPD
sec
5-day plot - Average Wave Period
APD
sec
5-day plot - Mean Wave Direction
MWD
 
5-day plot - Atmospheric Pressure
PRES
in
5-day plot - Pressure Tendency
PTDY
in
5-day plot - Air Temperature
ATMP
°F
5-day plot - Water Temperature
WTMP
°F
5-day plot - Dew Point
DEWP
°F
5-day plot - Salinity
SAL
psu
5-day plot - Visibility
VIS
nmi
5-day plot - Tide (above MLLW)
TIDE
ft
2024-02-26 07:00 am W 11.7 15.5----30.05+0.00 52.5 55.0 43.3---
2024-02-26 06:50 am W 11.7 13.6 8.2 149.6WNW30.04- 52.5 55.0 45.0---
2024-02-26 06:40 am W 11.7 15.5----30.04- 52.7 55.0 45.1---
2024-02-26 06:30 am W 11.7 15.5----30.04- 52.7 55.0 45.1---
2024-02-26 06:20 am W 11.7 15.5 7.9 149.7WNW30.04- 52.7 55.0 44.8---
2024-02-26 06:10 am W 11.7 13.6 7.9-9.7WNW30.04- 52.7 55.0 44.6---
2024-02-26 06:00 am W 9.7 15.5----30.04+0.00 52.7 55.0 44.6---
2024-02-26 05:50 am W 7.8 9.7 7.5 159.5WNW30.04- 52.7 55.0 44.8---
2024-02-26 05:40 am W 5.8 9.7----30.03- 52.5 55.0 44.8---
2024-02-26 05:30 am W 7.8 9.7----30.03- 52.3 55.0 44.6---
2024-02-26 05:20 am W 7.8 9.7 8.2 129.8WNW30.03- 52.2 55.0 44.2---
2024-02-26 05:10 am W 7.8 11.7 8.2-9.8WNW30.03- 52.2 54.9 44.4---
2024-02-26 05:00 am W 5.8 11.7----30.03-0.01 52.0 54.9 44.2---
2024-02-26 04:50 am W 9.7 13.6 7.9 1510.0 NW30.04- 52.0 54.9 44.1---
2024-02-26 04:40 am W 9.7 13.6----30.04- 52.2 54.9 44.6---
2024-02-26 04:30 amWNW 9.7 11.7----30.04- 52.2 54.7 44.4---
2024-02-26 04:20 amWNW 7.8 9.7 8.2 139.9 NW30.04- 52.0 54.7 44.6---
2024-02-26 04:10 amWNW 7.8 9.7----30.04- 51.6 54.7 45.0---
2024-02-26 04:00 amWNW 9.7 13.6----30.05+0.00 51.8 54.7 45.3---
2024-02-26 03:50 am W 9.7 11.7----30.05- 51.8 54.7 45.3---
2024-02-26 03:40 amWNW 9.7 11.7----30.04- 51.8 54.7 45.7---
2024-02-26 03:30 amWNW 9.7 13.6----30.04- 51.8 54.7 45.9---
2024-02-26 03:20 amWNW 9.7 11.7 8.2 1410.0 NW30.05- 51.8 54.7 46.0---
2024-02-26 03:10 amWNW 9.7 11.7 8.2-10.0 NW30.04- 51.8 54.7 46.0---
2024-02-26 03:00 amWNW 7.8 11.7----30.04+0.00 52.0 54.7 46.2---
2024-02-26 02:50 amWNW 9.7 11.7 7.9 1510.1 NW30.04- 52.2 54.7 46.2---
2024-02-26 02:40 amWNW 7.8 11.7----30.04- 52.2 54.7 46.2---
2024-02-26 02:30 am NW 7.8 11.7----30.04- 52.2 54.7 46.6---
2024-02-26 02:20 am NW 7.8 9.7 8.2 1610.5 NW30.04- 52.2 54.7 46.6---
2024-02-26 02:10 am NW 9.7 11.7 8.2-10.5 NW30.04- 52.3 54.9 47.1---
2024-02-26 02:00 am NW 9.7 13.6----30.04+0.00 52.5 54.9 47.5---
2024-02-26 01:50 am NW 5.8 9.7 8.5 1510.3 NW30.05- 52.5 54.9 47.3---
2024-02-26 01:40 am NW 5.8 7.8----30.04- 52.5 54.9 47.5---
2024-02-26 01:30 amNNW 5.8 9.7----30.05- 52.7 54.9 47.8---
2024-02-26 01:20 amNNW 5.8 9.7 8.5 1610.6 NW30.05- 52.7 54.9 48.0---
2024-02-26 01:10 amNNW 5.8 9.7 8.5-10.6 NW30.05- 52.7 55.0 48.2---
2024-02-26 01:00 amNNW 5.8 7.8----30.05-0.01 52.7 55.0 48.2---
2024-02-26 12:50 amNNW 5.8 7.8 7.5 1410.2WNW30.05- 52.7 54.9 48.4---
2024-02-26 12:40 am N 5.8 7.8----30.04- 52.7 54.9 48.4---
2024-02-26 12:30 am N 5.8 7.8----30.04- 52.9 54.9 48.4---
2024-02-26 12:20 am N 3.9 7.8 8.9 1511.0WNW30.04- 52.9 54.9 48.2---
2024-02-26 12:10 amNNW 3.9 5.8----30.04- 52.9 55.0 48.2---
2024-02-26 12:00 am NW 3.9 5.8----30.04-0.01 52.7- 48.0---
2024-02-25 11:50 pm N 1.9 3.9 8.9 1610.8WNW30.04- 52.7 55.0 48.0---
2024-02-25 11:40 pm N 1.9 3.9----30.03- 52.7 55.0 48.0---
2024-02-25 11:30 pm N 3.9 5.8----30.04- 52.7 54.9 48.0---
2024-02-25 11:20 pm N 3.9 5.8 7.2 179.9WNW30.04- 52.7 55.0 48.0---
2024-02-25 11:10 pm N 3.9 7.8----30.05- 52.9 55.0 48.2---
2024-02-25 11:00 pm N 5.8 7.8----30.05+0.00 52.9 55.0 48.0---
2024-02-25 10:50 pm N 5.8 7.8 8.9 1710.8 NW30.05- 52.9 55.0 48.2---
2024-02-25 10:40 pm N 5.8 7.8----30.06- 52.9 55.0 48.2---
2024-02-25 10:30 pm N 5.8 7.8----30.06- 52.9 55.2 48.6---
2024-02-25 10:20 pm N 7.8 9.7 7.9 1710.4 NW30.06- 52.9 55.2 48.7---
2024-02-25 10:10 pm N 7.8 9.7----30.06- 53.1 55.2 49.1---
2024-02-25 10:00 pm N 7.8 11.7----30.06+0.01 52.9 55.2 48.9---
2024-02-25 09:50 pm N 7.8 9.7 8.2 1610.4WNW30.06- 53.1 55.2 49.3---
2024-02-25 09:40 pm N 7.8 9.7----30.06- 53.1 55.0 49.3---
2024-02-25 09:30 pm N 5.8 7.8----30.06- 53.1 55.2 49.3---
2024-02-25 09:20 pm N 5.8 7.8 8.2 1710.2WNW30.06- 53.1 55.4 49.3---
2024-02-25 09:10 pm N 3.9 7.8----30.06- 53.1 55.6 49.3---
2024-02-25 09:00 pmNNE 5.8 5.8----30.05+0.02 52.9 55.8 49.1---
2024-02-25 08:50 pm N 5.8 7.8 9.2 1610.9 NW30.05- 53.1 55.6 49.3---
2024-02-25 08:40 pm N 5.8 7.8----30.05- 53.1 55.6 49.3---
2024-02-25 08:30 pm N 5.8 7.8----30.05- 53.1 55.4 49.3---
2024-02-25 08:20 pmNNE 5.8 7.8 7.9 159.8WNW30.05- 53.1 55.2 49.5---
2024-02-25 08:10 pmNNE 5.8 7.8----30.05- 53.2 55.2 49.5---
2024-02-25 08:00 pm N 5.8 7.8----30.05+0.02 53.2 55.2 49.5---
2024-02-25 07:50 pmNNE 5.8 7.8 8.9 1210.4WNW30.05- 53.1 55.0 49.3---
2024-02-25 07:40 pm N 5.8 7.8----30.05- 53.2 55.0 49.5---
2024-02-25 07:30 pm N 5.8 9.7----30.04- 53.2 55.0 49.5---
2024-02-25 07:20 pm N 7.8 9.7 9.5 1610.4WNW30.04- 53.1 54.9 49.5---
2024-02-25 07:10 pm N 7.8 9.7----30.04- 53.1 54.9 49.5---
2024-02-25 07:00 pm N 7.8 9.7----30.04+0.01 53.1 54.7 49.5---
2024-02-25 06:50 pm N 7.8 11.7 9.5 1610.7WNW30.04- 53.1 54.9 49.5---
2024-02-25 06:40 pm N 9.7 11.7 9.5-10.7WNW30.04- 53.2 54.9 49.8---
2024-02-25 06:30 pm N 9.7 11.7----30.03- 53.2 54.9 49.8---
2024-02-25 06:20 pm N 7.8 11.7 10.2 1510.8WNW30.03- 53.4 54.9 49.8---
2024-02-25 06:10 pm N 7.8 9.7 10.2-10.8WNW30.03- 53.4 54.9 49.8---
2024-02-25 06:00 pm N 7.8 9.7----30.03-0.01 53.4- 49.8---
2024-02-25 05:50 pm N 5.8 7.8 10.2 1711.2WNW30.03- 53.4 55.0 49.8---
2024-02-25 05:40 pm N 5.8 7.8----30.03- 53.8- 50.2---
2024-02-25 05:30 pm N 5.8 7.8----30.03- 53.8 55.0 50.0---
2024-02-25 05:20 pm N 5.8 7.8 9.5 1711.1WNW30.03- 53.8 55.0 50.0---
2024-02-25 05:10 pm N 5.8 7.8 9.5-11.1WNW30.03- 53.8 55.0 50.0---
2024-02-25 05:00 pm N 5.8 9.7----30.03-0.02 53.6 55.2 49.8---
2024-02-25 04:50 pm N 7.8 9.7 9.5 1510.9 NW30.03- 53.6 55.2 50.0---
2024-02-25 04:40 pm N 7.8 9.7----30.03- 53.8 55.6 50.4---
2024-02-25 04:30 pm N 7.8 9.7----30.03- 53.8 55.8 50.2---
2024-02-25 04:20 pm N 7.8 9.7----30.03- 53.8 55.9 50.4---
2024-02-25 04:10 pm N 7.8 9.7----30.03- 53.8 55.8 50.4---
2024-02-25 04:00 pm N 5.8 9.7----30.03-0.02 54.0 55.0 50.4---
2024-02-25 03:50 pmNNW 5.8 7.8 10.2 1711.2 NW30.03- 53.8 55.0 50.0---
2024-02-25 03:40 pmNNW 3.9 7.8----30.03- 53.8 54.9 50.0---
2024-02-25 03:30 pmNNW 3.9 7.8----30.03- 53.6 54.9 49.8---
2024-02-25 03:20 pmNNW 3.9 7.8 9.5 1710.9 NW30.03- 53.6 55.4 49.6---
2024-02-25 03:10 pmNNW 3.9 7.8----30.04- 53.6 55.2 49.6---
2024-02-25 03:00 pmNNW 3.9 5.8----30.04-0.02 53.4 54.9 49.5---
2024-02-25 02:50 pm N 1.9 5.8 8.2 1510.1 NW30.04- 53.4 54.9 49.6---
2024-02-25 02:40 pm NE 1.9 3.9----30.04- 53.1 54.9 49.3---
2024-02-25 02:30 pm NE 1.9 3.9----30.04- 53.1 54.9 49.5---
2024-02-25 02:20 pmNNE 3.9 5.8 8.9 159.9 NW30.04- 52.9 54.9 49.5---
2024-02-25 02:10 pm N 3.9 7.8----30.04- 53.1 54.7 49.6---
2024-02-25 02:00 pm N 5.8 7.8----30.04-0.02 52.7 54.7 49.3---
2024-02-25 01:50 pm N 3.9 5.8 8.9 179.6 NW30.04- 52.7 54.7 49.5---
2024-02-25 01:40 pm N 3.9 7.8----30.04- 52.7 54.9 49.5---
2024-02-25 01:30 pm N 5.8 7.8----30.04- 52.7 54.7 49.5---
2024-02-25 01:20 pm N 5.8 7.8 9.5 1710.3WNW30.04- 52.7 55.2 49.5---
2024-02-25 01:10 pm N 5.8 7.8 9.5-10.3WNW30.05- 52.7 55.2 49.5---
2024-02-25 01:00 pm N 5.8 7.8----30.05+0.00 52.5 55.0 49.5---
2024-02-25 12:50 pm N 5.8 7.8 10.2 1710.3WNW30.05- 52.5 54.9 49.5---
2024-02-25 12:40 pmNNW 7.8 11.7----30.06- 52.7 54.9 49.6---
2024-02-25 12:30 pmNNW 7.8 9.7----30.06- 52.5 54.7 49.6---
2024-02-25 12:20 pmNNW 7.8 9.7 9.2 159.8 NW30.06- 52.3 54.5 49.5---
2024-02-25 12:10 pmNNW 5.8 9.7 9.2-9.8 NW30.06- 52.3 54.5 49.6---
2024-02-25 12:00 pmNNW 7.8 9.7----30.06+0.02 52.2 54.3 49.6---
2024-02-25 11:50 amNNW 7.8 9.7 8.5 159.2 NW30.06- 52.2- 49.6---
2024-02-25 11:40 am NW 5.8 9.7----30.07- 52.0 54.3 49.6---
2024-02-25 11:30 am NW 5.8 9.7----30.07- 52.0 54.9 49.6---
2024-02-25 11:20 am NW 3.9 7.8 9.5 1710.2WNW30.07- 51.6 54.9 49.5---
2024-02-25 11:10 am NW 5.8 7.8 9.5-10.2WNW30.07- 51.4 54.9 49.3---
2024-02-25 11:00 am NW 3.9 7.8----30.07+0.02 51.4 54.7 49.5---
2024-02-25 10:50 amNNW 3.9 5.8 9.2 169.6WNW30.07- 51.1 54.7 49.1---
2024-02-25 10:40 amNNW 1.9 3.9----30.06- 51.1 54.5 49.1---
2024-02-25 10:30 am N 1.9 5.8----30.06- 51.1 54.5 49.1---
2024-02-25 10:20 am- 0.0 3.9 9.2 179.4 NW30.06- 51.1 54.5 49.3---
2024-02-25 10:10 am N 1.9 5.8 9.2-9.4 NW30.06- 50.9 54.3 49.1---
2024-02-25 10:00 am NE 1.9 5.8----30.06+0.03 51.1 54.1 49.5---
2024-02-25 09:50 am NE 1.9 5.8 10.5 1710.0WNW30.05- 50.9 54.1 49.5---
2024-02-25 09:40 amNNE 3.9 5.8----30.05- 51.1 54.1 49.6---
2024-02-25 09:30 am N 1.9 5.8----30.05- 50.9 54.1 49.6---
2024-02-25 09:20 am N 3.9 5.8 8.9 179.3WNW30.05- 50.7 54.1 49.5---
2024-02-25 09:10 amNNE 1.9 3.9----30.05- 50.9 54.1 49.6---
2024-02-25 09:00 amENE 3.9 5.8----30.05+0.02 50.7 54.0 49.5---
2024-02-25 08:50 amENE 3.9 7.8 8.9 169.0 NW30.04- 50.9 53.8 49.5---
2024-02-25 08:40 amENE 3.9 5.8----30.04- 51.4 54.0 49.8---
2024-02-25 08:30 am NE 3.9 7.8----30.04- 51.6 54.1 50.0---
2024-02-25 08:20 amNNW 1.9 3.9 9.2 179.3WNW30.05- 51.3 54.1 49.6---
2024-02-25 08:10 am NW 3.9 5.8 9.2-9.3WNW30.05- 51.4 53.8 50.0---
2024-02-25 08:00 amNNW 1.9 5.8----30.05+0.02 51.4 53.8 50.0---
2024-02-25 07:50 amWNW 1.9 3.9 9.5 199.4WNW30.04- 51.3 54.1 49.8---
2024-02-25 07:40 am- 0.0 1.9----30.04- 51.3 54.1 49.8---
2024-02-25 07:30 amWNW 1.9 3.9----30.04- 51.1 54.1 49.6---
2024-02-25 07:20 am NW 1.9 3.9 10.2 1910.0WNW30.03- 51.3 54.0 49.8---
2024-02-25 07:10 am W 1.9 3.9 10.2-10.0WNW30.03- 51.3 54.0 49.8---
2024-02-25 07:00 am- 0.0 3.9----30.03+0.00 51.1 54.0 49.5---
2024-02-25 06:50 am- 0.0 3.9 10.2 179.8 NW30.03- 51.3 54.0 49.5---

Detailed Wave Summary
for 46022 as of (6:40 am PST)
1440 GMT on 02/26/2024:

These wave data are displayed in rounded times.

     

Click on the graph icon in the table below to see a time series plot of the last five days of that observation.

5-day plot - Significant Wave Height Significant Wave Height (WVHT): 8.2 ft
5-day plot - Swell Height Swell Height (SwH): 7.9 ft
5-day plot - Swell Period Swell Period (SwP): 13.8 sec
5-day plot - Swell Direction Swell Direction (SwD):WNW
5-day plot - Wind Wave Height Wind Wave Height (WWH): 1.6 ft
5-day plot - Wind Wave Period Wind Wave Period (WWP): 4.3 sec
5-day plot - Wind Wave Direction Wind Wave Direction (WWD): NW
5-day plot - Wave Steepness Wave Steepness (STEEPNESS): SWELL
5-day plot - Average Wave Period Average Wave Period (APD): 9.6 sec
Previous observations
TIME
(PST)
5-day plot - Wave Height
WVHT
ft
5-day plot - Swell Height
SwH
ft
5-day plot - Swell Period
SwP
sec
5-day plot - Swell Direction
SwD
 
5-day plot - Wind Wave Height
WWH
ft
5-day plot - Wind Wave Period
WWP
sec
5-day plot - Wind Wave Direction
WWD
 
5-day plot - Wave Steepness
STEEPNESS
 
5-day plot - Average Wave Period
APD
sec
2024-02-26 06:10 am 7.9 7.5 13.8WNW 1.3 4.8 NW SWELL 9.7
2024-02-26 05:40 am 7.5 7.5 14.8WNW 1.0 3.0 W SWELL 9.5
2024-02-26 05:10 am 8.2 7.9 12.1WNW 1.0 3.4 SSW SWELL 9.8
2024-02-26 04:40 am 7.9 7.9 14.8 NW 1.3 5.0 WNW SWELL 10.0
2024-02-26 04:10 am 8.2 8.2 12.9 NW 1.3 4.0 W SWELL 9.9
2024-02-26 03:10 am 8.2 8.2 13.8 NW 1.3 3.1 SSW SWELL 10.0
2024-02-26 02:40 am 7.9 7.5 14.8 NW 1.3 4.0 SSW SWELL 10.1
2024-02-26 02:10 am 8.2 8.2 16.0 NW 1.3 4.2 SSW SWELL 10.5
2024-02-26 01:40 am 8.5 8.5 14.8 NW 1.3 3.7 S SWELL 10.3
2024-02-26 01:10 am 8.5 8.5 16.0 NW 1.3 3.8 S SWELL 10.6
2024-02-26 12:40 am 7.5 7.5 13.8WNW 1.0 3.7 S SWELL 10.2
2024-02-26 12:10 am 8.9 8.9 14.8WNW 1.0 3.2 SW SWELL 11.0
2024-02-25 11:40 pm 8.9 8.5 16.0WNW 1.3 4.0 S SWELL 10.8
2024-02-25 11:10 pm 7.2 7.2 17.4WNW 1.3 3.7 S SWELL 9.9
2024-02-25 10:40 pm 8.9 8.9 17.4 NW 1.3 4.0 S SWELL 10.8
2024-02-25 10:10 pm 7.9 7.9 17.4 NW 1.3 3.8 SSW SWELL 10.4
2024-02-25 09:40 pm 8.2 8.2 16.0WNW 1.3 3.8 SSW SWELL 10.4
2024-02-25 09:10 pm 8.2 8.2 17.4WNW 1.3 3.4 NW SWELL 10.2
2024-02-25 08:40 pm 9.2 9.2 16.0 NW 1.3 3.7 NNW SWELL 10.9
2024-02-25 08:10 pm 7.9 7.9 14.8WNW 1.3 3.4 NW SWELL 9.8
2024-02-25 07:40 pm 8.9 8.9 12.1WNW 1.3 3.8 NNW SWELL 10.4
2024-02-25 07:10 pm 9.5 9.5 16.0WNW 1.3 3.6 N SWELL 10.4
2024-02-25 06:40 pm 9.5 9.5 16.0WNW 1.6 4.3 N SWELL 10.7
2024-02-25 06:10 pm 10.2 10.2 14.8WNW 1.0 3.6 NNW SWELL 10.8
2024-02-25 05:40 pm 10.2 10.2 17.4WNW 1.3 3.2 NNW SWELL 11.2
2024-02-25 05:10 pm 9.5 9.5 17.4WNW 1.0 3.6 NNW SWELL 11.1
2024-02-25 04:40 pm 9.5 9.5 14.8 NW 1.3 3.7 NW SWELL 10.9
2024-02-25 03:40 pm 10.2 10.2 17.4 NW 1.3 4.0 NW SWELL 11.2
2024-02-25 03:10 pm 9.5 9.5 17.4 NW 1.0 4.0 NNW SWELL 10.9
2024-02-25 02:40 pm 8.2 8.2 14.8 NW 1.3 3.8 NNW SWELL 10.1
2024-02-25 02:10 pm 8.9 8.5 14.8 NW 1.3 3.8 NNW SWELL 9.9
2024-02-25 01:40 pm 8.9 8.5 17.4 NW 1.3 4.0 NNW SWELL 9.6
2024-02-25 01:10 pm 9.5 9.2 17.4WNW 1.3 3.6 NNW SWELL 10.3
2024-02-25 12:40 pm 10.2 10.2 17.4WNW 1.3 3.8 NNW SWELL 10.3
2024-02-25 12:10 pm 9.2 9.2 14.8 NW 1.3 4.0 NNW SWELL 9.8
2024-02-25 11:40 am 8.5 8.5 14.8 NW 1.3 3.8 NNW SWELL 9.2
2024-02-25 11:10 am 9.5 9.5 17.4WNW 1.3 4.0 N SWELL 10.2
2024-02-25 10:40 am 9.2 8.9 16.0WNW 1.3 4.0 NNW SWELL 9.6
2024-02-25 10:10 am 9.2 9.2 17.4 NW 1.3 3.1 NNW SWELL 9.4
2024-02-25 09:40 am 10.5 10.5 17.4WNW 1.3 4.0 NNW SWELL 10.0
2024-02-25 09:10 am 8.9 8.5 17.4WNW 1.3 3.8 NNW SWELL 9.3
2024-02-25 08:40 am 8.9 8.9 16.0 NW 1.3 4.0 NNW SWELL 9.0
2024-02-25 08:10 am 9.2 9.2 17.4WNW 1.3 4.0 NNW SWELL 9.3
2024-02-25 07:40 am 9.5 9.5 19.0WNW 1.3 4.0 NNW SWELL 9.4
2024-02-25 07:10 am 10.2 10.2 19.0WNW 1.3 3.3 NW SWELL 10.0

Plot of wave energy versus frequency (and period)